Regional Weather Roundup
Issued by NWS Green Bay, WI

Home | Current Version | Previous Version | Text Only | Print | Product List | Glossary On
Versions: 1 2 3 4 5 6 7 8 9 10 11 12 13 14 15 16 17 18 19 20 21 22 23 24 25 26 27 28 29 30 31 32 33 34 35 36 37 38 39 40 41 42 43 44 45 46 47 48 49 50
489
ASUS43 KGRB 231700
RWRGRB

NORTH-CENTRAL AND NORTHEAST WISCONSIN REGIONAL WEATHER ROUNDUP
NATIONAL WEATHER SERVICE GREEN BAY WI
1200 PM CDT WED MAY 23 2018

WIZ005-009-010>012-018-019-231800-
NORTH CENTRAL WISCONSIN

CITY           SKY/WX    TMP DP  RH WIND       PRES   REMARKS
IRONWOOD       PTSUNNY   77  55  46 SW3       30.15S
MANITOWISH WTR NOT AVBL
ARBOR VITAE    NOT AVBL
EAGLE RIVER    FAIR      76  47  35 SW6       30.16F
LAND O LAKES   PTSUNNY   76  50  39 CALM      30.18S
RHINELANDER    NOT AVBL
PHILLIPS       FAIR      74  56  53 S5        30.16S
ANTIGO         FAIR      74  56  52 S7        30.19S
TOMAHAWK       FAIR      76  56  49 SE5       30.18S
MERRILL        PTSUNNY   75  56  51 SW3       30.18S
$$

WIZ013-073-231800-
NORTHEAST WISCONSIN

CITY           SKY/WX    TMP DP  RH WIND       PRES   REMARKS
IRON MOUNTAIN  FAIR      81  36  19 N6        30.14F
MARINETTE      FAIR      71  54  54 E8        30.17S
$$

WIZ017-030-035>037-045-231800-
CENTRAL WISCONSIN

CITY           SKY/WX    TMP DP  RH WIND       PRES   REMARKS
MEDFORD        NOT AVBL
WAUSAU         NOT AVBL
MOSINEE        PTSUNNY   73  57  56 S7        30.19S
MARSHFIELD     FAIR      74  60  61 SW7       30.17S
WISC RAPIDS    FAIR      73  58  59 W7        30.19R
STEVENS POINT  NOT AVBL
WAUPACA        FAIR      78  58  48 CALM      30.18S
SHAWANO        FAIR      80  51  37 NE3       30.17R
CLINTONVILLE   FAIR      77  56  49 SE7       30.18R
WAUTOMA        NOT AVBL
$$

WIZ038-039-048-051-231800-
FOX VALLEY

CITY           SKY/WX    TMP DP  RH WIND       PRES   REMARKS
NWS GREEN BAY  FAIR      77  60  55 CALM      30.17S
APPLETON       MOSUNNY   73  54  49 SW6       30.18S
OSHKOSH        FAIR      74  59  59 S8        30.19R
FOND DU LAC    FAIR      73  57  57 S7        30.20R
$$

WIZ022-050-052-231800-
EAST CENTRAL WISCONSIN

CITY           SKY/WX    TMP DP  RH WIND       PRES   REMARKS
EPHRAIM        NOT AVBL
WASHINGTON ISL NOT AVBL
STURGEON BAY   FAIR      73  56  54 NW5       30.18
MANITOWOC      FAIR      69  59  70 E7        30.18S
SHEBOYGAN      FAIR      74  60  61 E8        30.18S
$$

LMZ563-521-522-541>543-231800-
LAKESHORE

STATION/POSITION TIME  TEMP    WIND        PRES    VSBY  WAVE
                       AIR SEA DIR/SP/G                  HT/PER
                 (UTC) (F)     (DEG/KT/KT) (MB)    (MI)  (FT/S)
SHEBOYGAN LKSHOR 1600   48     160/  7/  8 1022.2F
KEWAUNEE LKSHORE 1624   59     130/  4/  6 1021.3
NORTHPORT PIER   1640   53     110/  1/  2 1021.3F
N MID LAKE BUOY  1640   40 38  200/  6/  8 1021.7S
SISTER BAY LKSHO 1627   60        CALM       N/A
MENOMINEE LKSHOR 1624   60     140/  5/  5 1021.2
$$




USA.gov is the U.S. government's official web portal to all federal, state and local government web resources and services.